Location: Biltmore Gardens
(41.6070°N, 83.4666°W)
Time: 08:23:40
(UTC+00:00)

Transit 2A Rocket - All Passes

Search period start: 20 April 2021 00:00
Search period end: 30 April 2021 00:00
Orbit: 594 x 908 km, 66.7° (Epoch: 19 April)

Date Brightness Start Highest point End Pass type
(mag) Time Alt. Az. Time Alt. Az. Time Alt. Az.
20 Apr - 04:34:27 10° N 04:38:01 23° NE 04:41:45 10° E visible
20 Apr - 06:16:22 10° NW 06:20:42 45° WSW 06:25:22 10° S visible
20 Apr - 19:11:41 10° SE 19:13:46 13° ESE 19:15:48 10° E daylight
20 Apr - 20:51:18 10° SW 20:55:48 62° WNW 21:00:06 10° NNE daylight
21 Apr - 03:52:41 10° N 03:55:07 14° NE 03:57:35 10° ENE visible
21 Apr - 05:33:37 10° NNW 05:38:09 83° WSW 05:43:03 10° SSE visible
21 Apr - 20:08:40 10° SSW 20:13:12 70° ESE 20:17:32 10° NE daylight
21 Apr - 21:53:37 10° W 21:56:10 15° NW 21:58:41 10° N daylight
22 Apr - 04:51:06 10° NNW 04:55:32 54° ENE 05:00:18 10° SE visible
22 Apr - 06:34:43 10° WNW 06:37:43 17° WSW 06:40:49 10° SSW visible
22 Apr - 19:26:30 10° S 19:30:42 36° ESE 19:34:42 10° NE daylight
22 Apr - 21:09:37 10° WSW 21:13:16 24° NW 21:16:50 10° N daylight
23 Apr - 04:08:46 10° N 04:12:48 31° NE 04:17:06 10° ESE visible
23 Apr - 05:51:15 10° NW 05:55:17 31° WSW 05:59:35 10° S visible
23 Apr - 18:45:00 10° SSE 18:48:15 20° ESE 18:51:25 10° ENE daylight
23 Apr - 20:26:14 10° SW 20:30:30 41° NW 20:34:37 10° NNE daylight
24 Apr - 03:26:42 10° N 03:29:59 19° NE 03:33:23 10° E visible
24 Apr - 05:08:18 10° NW 05:12:47 56° WSW 05:17:37 10° SSE visible
24 Apr - 19:43:18 10° SSW 19:47:50 78° WNW 19:52:11 10° NNE daylight
24 Apr - 21:29:57 10° NW 21:31:04 11° NW 21:32:11 10° NNW daylight
25 Apr - 02:45:14 10° NNE 02:47:01 12° NE 02:48:51 10° ENE visible
25 Apr - 04:25:38 10° NNW 04:30:12 80° ENE 04:35:09 10° SSE visible
25 Apr - 06:10:45 10° W 06:12:12 11° WSW 06:13:40 10° WSW visible
25 Apr - 19:00:50 10° SSW 19:05:16 55° ESE 19:09:31 10° NE daylight
25 Apr - 20:45:06 10° W 20:48:05 18° NW 20:51:02 10° N daylight
26 Apr - 03:43:11 10° NNW 03:47:33 44° NE 03:52:13 10° SE visible
26 Apr - 05:26:19 10° WNW 05:29:50 21° WSW 05:33:32 10° SSW visible
26 Apr - 18:18:53 10° S 18:22:47 29° ESE 18:26:32 10° NE daylight
26 Apr - 20:01:21 10° WSW 20:05:14 29° NW 20:09:02 10° N daylight
27 Apr - 03:00:57 10° N 03:04:48 26° NE 03:08:51 10° ESE visible
27 Apr - 04:43:06 10° NW 04:47:23 38° WSW 04:51:58 10° S visible
27 Apr - 17:37:44 10° SE 17:40:23 15° ESE 17:42:59 10° ENE daylight
27 Apr - 19:18:07 10° SW 19:22:30 51° WNW 19:26:44 10° NNE daylight
28 Apr - 02:19:00 10° N 02:21:55 16° NE 02:24:56 10° E visible
28 Apr - 04:00:17 10° NW 04:04:51 70° WSW 04:09:49 10° SSE visible
28 Apr - 18:35:22 10° SSW 18:39:52 84° ESE 18:44:13 10° NNE daylight
28 Apr - 20:20:57 10° WNW 20:22:58 13° NW 20:24:58 10° NNW daylight
29 Apr - 01:38:15 10° NNE 01:38:54 10° NE 01:39:33 10° NE visible
29 Apr - 03:17:41 10° NNW 03:22:15 65° ENE 03:27:10 10° SE visible
29 Apr - 05:01:47 10° WNW 05:04:20 14° WSW 05:07:00 10° SW visible
29 Apr - 17:53:04 10° S 17:57:20 43° ESE 18:01:27 10° NE daylight
29 Apr - 19:36:40 10° W 19:40:01 21° NW 19:43:19 10° N daylight
